Content
SEND FEEDBACK

Daily
Averages
Monthly
Summary
United States of America

CHICAGO, ILLINOIS


Home > North America > United States > Illinois
Elevation: 674 feet     Latitude: 41 59N     Longitude: 087 54W

WEATHER
 
SELECT A DAY
Number of Records: 195,010;   Date Range: 7/8/95 - 8/30/14
 
SHARE

PRINT THIS DATA

[ ← Previous Day ]
WEATHER ALMANAC - MARCH 4, 2014
[ Next Day → ]
[ °C ]   °F
Weather ElementAverageHighLow
Temperature18 °F25 °F (1:52 pm)10.9 °F (4:40 am)
Dewpoint7 °F14 °F (11:52 pm)1.9 °F (1:52 am)
Humidity63 %81 % (4:40 am)45 % (3:52 pm)
Barometer30.29 in30.39 in (1:52 am)30.21 in (3:52 pm)
Wind Speed6 mph9.2 mph (2:52 am)
Weather ElementAverage
Visibility9 mi
Wind DirectionSSW (190 °)

Weather ElementTotal
Precipitation---
Heating Degree Days47.1 (Base 65)
Averaged from 26 records on March 4, 2014
WEATHER CONDITIONS BREAKOUT
WIND DIRECTION BREAKOUT
WEATHER BY HOUR - MARCH 4, 2014
[ °C ]   °F
Local TimeTemperatureDewpointHumidityBarometerVisibilityWind DirectionWind SpeedGust SpeedPrecipitationEventsConditions
1:52 AM12.0 °F1.9 °F64 %30.39 in10.0 miWest (260°)3.5 mphMostly Cloudy
2:52 AM12.0 °F1.9 °F64 %30.35 in10.0 miSouth (170°)9.2 mphOvercast
3:52 AM12.9 °F1.9 °F62 %30.38 in10.0 miWest (280°)5.8 mphOvercast
4:23 AM12.0 °F5.0 °F73 %30.34 in1.8 miWest (270°)4.6 mph0.00 inSnowLight Snow
4:40 AM10.9 °F6.1 °F81 %30.33 in2.0 miSSW (210°)3.5 mph0.00 inSnowLight Snow
4:44 AM10.9 °F6.1 °F81 %30.33 in4.0 miSSW (210°)4.6 mph0.00 inSnowLight Snow
4:52 AM10.9 °F6.1 °F81 %30.37 in6.0 miCalm0.00 inSnowLight Snow
5:52 AM12.0 °F6.1 °F77 %30.34 in9.0 miSouth (170°)5.8 mph0.00 inOvercast
6:52 AM12.9 °F5.0 °F71 %30.34 in10.0 miSSW (200°)6.9 mphOvercast
7:52 AM14.0 °F5.0 °F67 %30.32 in10.0 miSSW (200°)8.1 mphOvercast
8:52 AM15.1 °F3.9 °F61 %30.30 in10.0 miSouth (190°)8.1 mphOvercast
9:52 AM17.1 °F5.0 °F59 %30.30 in10.0 miSSW (200°)8.1 mphOvercast
10:52 AM19.0 °F6.1 °F57 %30.27 in10.0 miVariable5.8 mphOvercast
11:52 AM21.0 °F8.1 °F57 %30.27 in10.0 miSW (230°)9.2 mphOvercast
12:52 PM21.9 °F8.1 °F55 %30.25 in10.0 miSW (230°)8.1 mphOvercast
1:52 PM25.0 °F7.0 °F46 %30.22 in10.0 miWSW (250°)6.9 mphOvercast
2:52 PM25.0 °F7.0 °F46 %30.22 in10.0 miWNW (290°)9.2 mphOvercast
3:52 PM25.0 °F6.1 °F45 %30.21 in10.0 miWNW (300°)4.6 mphOvercast
4:52 PM25.0 °F7.0 °F46 %30.22 in10.0 miNW (310°)9.2 mphOvercast
5:52 PM24.1 °F8.1 °F51 %30.24 in10.0 miNorth (360°)5.8 mphMostly Cloudy
6:52 PM23.0 °F9.0 °F55 %30.25 in10.0 miNorth (360°)4.6 mphOvercast
7:52 PM21.0 °F10.9 °F65 %30.25 in10.0 miNE (50°)4.6 mphClear
8:52 PM21.0 °F12.0 °F68 %30.27 in10.0 miNE (50°)3.5 mphOvercast
9:52 PM21.9 °F12.9 °F68 %30.28 in10.0 miNE (50°)4.6 mphOvercast
10:52 PM21.9 °F10.9 °F63 %30.29 in10.0 miNE (50°)5.8 mphOvercast
11:52 PM21.0 °F14.0 °F74 %30.29 in10.0 miNE (50°)6.9 mphOvercast
Hourly data recorded from KPWK, located miles away from Chicago, Illinois







STORIES FROM OUR PARTNERS